This demonstration page uses our WeatherBlox Daily Observations layout. Learn more.

Left ArrowRight Arrow

Hourly Observations for November 20, 2019

Temp ( °F °C ) Dew Point ( °F °C ) Humidity (%) Winds ( mph kmh ) Pressure ( in mb ) Visibility ( mi km ) Precip ( " mm )
12:53 am 00:53 Clear 58 14.4 35 1.7 42 42 N 12 19 29.68 1005 10 16 0.00 0.00
1:53 am 01:53 Clear 59 15 34 1.1 39 39 N 13 20 29.68 1005 10 16 0.00 0.00
2:53 am 02:53 Clear 58 14.4 33 0.6 39 39 N 12 19 29.69 1006 10 16 0.00 0.00
3:53 am 03:53 Clear 59 15 31 -0.6 35 35 N 15 24 29.70 1006 10 16 0.00 0.00
4:53 am 04:53 Clear 58 14.4 31 -0.6 36 36 N 13 20 29.70 1006 10 16 0.00 0.00
5:53 am 05:53 Clear 58 14.4 30 -1.1 35 35 N 16 26 29.71 1006 10 16 0.00 0.00
6:53 am 06:53 Clear 59 15 30 -1.1 33 33 N 18 30 29.71 1006 10 16 0.00 0.00
7:53 am 07:53 Sunny 60 15.6 28 -2.2 30 30 N 22 35 29.71 1006 10 16 0.00 0.00
8:53 am 08:53 Sunny 62 16.7 28 -2.2 28 28 NNE 26 43 29.70 1006 10 16 0.00 0.00
9:53 am 09:53 Sunny 63 17.2 28 -2.2 27 27 NNE 26 43 29.69 1005 10 16 0.00 0.00
10:53 am 10:53 Sunny 65 18.3 26 -3.3 23 23 NNE 24 39 29.68 1005 10 16 0.00 0.00
11:53 am 11:53 Sunny 66 18.9 26 -3.3 22 22 NNE 23 37 29.66 1004 10 16 0.00 0.00
12:53 pm 12:53 Sunny 67 19.4 24 -4.4 20 20 NE 23 37 29.63 1003 10 16 0.00 0.00
1:53 pm 13:53 Sunny 67 19.4 22 -5.6 18 18 NNE 26 43 29.62 1003 10 16 0.00 0.00
2:53 pm 14:53 Sunny 67 19.4 23 -5 19 19 N 25 41 29.61 1003 10 16 0.00 0.00
3:53 pm 15:53 Sunny 65 18.3 25 -3.9 22 22 NNE 16 26 29.63 1004 10 16 0.00 0.00
4:53 pm 16:53 Clear 63 17.2 26 -3.3 25 25 N 23 37 29.65 1004 10 16 0.00 0.00
5:53 pm 17:53 Clear 61 16.1 26 -3.3 26 26 NNE 24 39 29.66 1004 10 16 0.00 0.00
6:53 pm 18:53 Clear 60 15.6 27 -2.8 28 28 NNE 18 30 29.67 1005 10 16 0.00 0.00
7:53 pm 19:53 Clear 60 15.6 27 -2.8 28 28 N 18 30 29.69 1005 10 16 0.00 0.00
8:53 pm 20:53 Clear 59 15 27 -2.8 29 29 N 21 33 29.70 1006 10 16 0.00 0.00
9:53 pm 21:53 Clear 59 15 28 -2.2 31 31 N 22 35 29.71 1006 10 16 0.00 0.00
10:53 pm 22:53 Clear 59 15 28 -2.2 31 31 N 22 35 29.72 1006 10 16 0.00 0.00
11:53 pm 23:53 Clear 58 14.4 28 -2.2 32 32 N 16 26 29.74 1007 10 16 0.00 0.00

Powered by AerisWeather